Temp
9 8 8 7 7 7 7 7 8 7 7 7 7 7 7 7 7 6 6 6 6 6 6 6 5 5 6 6 6 6 6 6 6 5 4 5 5 5 5 4 4 4 4
8 7 8 7 7 8 7 7 7 7 7 7 7 7 7 6 6 6 6 6 6 5 5 5 5 5 5 6 6 5 5 5 5 5 5 5 4 5 5 5 4 4 4
8 8 7 7 7 8 8 7 7 7 7 7 7 7 7 6 6 6 6 5 5 5 5 5 5 5 5 5 5 5 5 5 5 5 4 4 5 5 4 4 4 4 4
7 7 7 7 7 7 7 7 7 7 7 7 6 6 6 6 6 6 5 5 5 5 5 5 5 5 4 5 4 3 3 3 4 4 4 4 4 4 3 3 3 3 3
6 6 6 7 7 7 7 6 6 6 7 6 6 6 6 6 5 5 5 5 5 5 5 5 4 4 4 4 4 3 3 3 3 3 3 3 3 3 3 3 3 3 3
6 6 5 5 6 6 6 6 6 6 6 6 6 6 5 5 5 5 5 5 5 5 5 4 4 3 3 3 3 2 2 2 2 2 2 2 2 2 3 2 3 3 3
6 5 4 3 4 5 5 5 5 6 6 6 6 5 5 5 5 5 5 4 4 4 4 4 4 3 3 2 2 2 2 2 2 2 2 2 2 2 2 2 2 2 2
5 4 3 2 3 3 4 4 5 5 6 6 5 5 5 5 5 5 5 4 4 4 4 3 3 3 3 2 2 2 2 2 2 2 1 2 2 2 2 2 2 2 2
4 3 4 3 1 2 2 2 4 5 5 6 5 5 5 5 5 5 5 4 4 3 3 3 3 3 2 2 2 1 1 1 2 2 2 2 2 1 2 2 2 2 2
3 4 3 2 1 2 2 3 4 5 5 5 5 5 5 5 5 4 4 4 3 3 3 3 2 2 2 2 2 2 2 1 1 1 1 2 2 2 2 2 2 2 2
1 1 2 2 2 1 3 4 4 4 4 5 5 4 4 4 4 4 4 4 3 3 3 2 1 2 2 2 2 1 1 1 1 1 1 1 1 2 2 2 2 2 2
2 2 1 1 2 2 3 4 4 4 5 4 4 4 4 4 4 3 3 3 3 2 1 1 1 1 2 2 2 2 2 2 2 1 2 2 2 2 2 2 2 2 2
1 3 2 1 3 3 4 4 4 4 4 4 3 3 3 3 3 3 4 3 2 1 1 1 1 1 1 2 2 2 2 2 1 1 1 1 2 1 2 2 2 2 2
3 2 2 3 3 3 4 4 4 4 4 4 3 3 4 3 3 3 3 3 2 1 1 1 1 1 2 1 1 1 1 1 1 1 1 1 1 1 1 2 2 2 2
4 2 3 3 3 4 4 4 4 4 4 3 4 4 3 3 3 3 2 2 2 1 1 1 1 1 1 1 1 0 0 -0 0 0 1 1 1 1 1 2 2 2 2
3 3 3 3 3 4 4 4 4 4 4 3 3 3 3 3 2 2 1 1 1 1 1 0 1 1 1 0 0 0 -0 0 0 0 0 0 0 0 0 1 1 2 2
4 4 4 4 4 4 4 4 4 3 3 3 3 2 2 2 2 2 1 0 1 1 1 1 1 1 0 0 0 1 1 1 1 0 0 -0 -1 -0 -0 0 1 1 1
4 4 5 4 4 4 4 4 3 3 3 3 2 2 1 2 2 1 1 1 1 1 1 1 0 0 0 1 1 1 0 -0 -0 -0 -0 -0 -0 -0 0 0 0 0 0
5 5 5 4 3 3 3 3 3 3 3 2 2 1 2 1 1 1 1 1 1 1 1 1 0 0 1 1 1 0 -0 -1 -1 -1 -1 -1 -1 -1 -1 -1 -1 -1 -1
5 5 5 4 4 4 4 4 4 3 3 2 2 3 3 3 2 2 1 1 1 1 0 0 0 0 0 0 0 -0 -0 -1 -1 -1 -1 -1 -2 -2 -3 -2 -2 -2 -2
5 5 5 4 4 4 4 4 3 2 2 2 3 3 3 2 2 2 1 1 0 0 0 0 -0 -0 -0 -0 -1 -1 -1 -1 -1 -2 -2 -2 -3 -3 -4 -4 -4 -5 -5
6 5 5 5 4 4 4 3 3 2 3 3 3 2 2 1 1 1 0 0 0 0 -0 -1 -1 -1 -1 -1 -1 -1 -2 -1 -1 -2 -2 -2 -3 -5 -5 -5 -6 -7 -8
6 5 5 4 4 3 3 3 3 3 3 2 2 1 1 1 0 0 -0 -0 -0 -1 -2 -2 -1 -2 -2 -2 -2 -3 -2 -2 -2 -3 -3 -3 -4 -5 -6 -7 -8 -9 -10
5 5 5 4 4 3 3 3 3 2 2 2 1 1 1 0 -0 -0 -0 -1 -1 -1 -2 -2 -2 -2 -2 -3 -3 -3 -4 -4 -4 -4 -4 -5 -7 -8 -9 -10 -11 -11 -11
5 4 4 4 4 4 3 3 3 2 2 2 1 1 0 -0 0 -0 -1 -2 -3 -3 -3 -3 -3 -2 -3 -4 -4 -5 -5 -5 -6 -6 -5 -6 -8 -9 -11 -12 -12 -12 -12
5 4 4 3 4 3 4 3 3 2 2 2 1 1 0 0 -0 -1 -2 -2 -3 -4 -3 -3 -3 -4 -5 -5 -6 -6 -6 -6 -7 -7 -7 -8 -8 -10 -11 -12 -13 -13 -13
Height
3155 3158 3161 3163 3165 3167 3168 3170 3172 3174 3175 3177 3179 3179 3177 3178 3177 3178 3179 3178 3176 3176 3176 3176 3175 3173 3172 3171 3172 3173 3172 3172 3170 3169 3169 3165 3165 3166 3163 3163 3163 3162 3162
3154 3156 3160 3162 3164 3165 3168 3170 3171 3173 3174 3176 3177 3178 3177 3177 3177 3178 3179 3179 3178 3177 3177 3177 3177 3175 3173 3171 3173 3173 3174 3173 3171 3168 3168 3166 3165 3165 3164 3163 3162 3162 3162
3152 3155 3157 3160 3162 3165 3167 3168 3170 3172 3173 3174 3176 3177 3177 3177 3179 3179 3180 3181 3181 3179 3178 3178 3178 3176 3174 3172 3171 3172 3173 3172 3170 3170 3167 3167 3166 3164 3163 3163 3162 3161 3162
3151 3153 3155 3158 3161 3162 3165 3166 3169 3170 3172 3173 3174 3175 3177 3178 3180 3180 3181 3181 3182 3179 3178 3179 3177 3178 3175 3172 3171 3172 3172 3171 3169 3168 3167 3166 3164 3164 3162 3162 3161 3161 3160
3150 3152 3153 3155 3157 3160 3162 3165 3167 3169 3171 3173 3173 3174 3176 3178 3180 3180 3182 3182 3181 3181 3179 3179 3178 3178 3177 3171 3171 3171 3172 3171 3168 3167 3166 3165 3164 3163 3162 3161 3160 3160 3158
3147 3149 3151 3152 3151 3155 3160 3164 3167 3168 3170 3172 3173 3174 3177 3179 3180 3181 3181 3182 3182 3181 3180 3180 3180 3180 3178 3175 3172 3171 3171 3170 3168 3166 3168 3167 3165 3164 3163 3161 3160 3159 3156
3144 3146 3142 3150 3148 3152 3159 3164 3166 3169 3171 3171 3173 3175 3177 3178 3180 3182 3183 3183 3183 3182 3181 3181 3182 3181 3180 3178 3173 3171 3172 3170 3168 3166 3165 3164 3164 3163 3162 3161 3160 3159 3156
3139 3137 3137 3141 3146 3150 3156 3161 3165 3169 3172 3173 3174 3175 3178 3179 3181 3182 3183 3183 3183 3182 3181 3181 3180 3180 3179 3178 3175 3170 3171 3169 3168 3167 3165 3162 3161 3160 3159 3158 3158 3157 3155
3133 3137 3133 3137 3140 3150 3156 3157 3164 3168 3171 3172 3172 3175 3177 3179 3181 3182 3182 3182 3181 3181 3181 3180 3179 3178 3178 3177 3176 3172 3168 3168 3166 3164 3164 3162 3160 3159 3157 3156 3156 3153 3153
3131 3130 3136 3140 3144 3151 3149 3158 3165 3168 3170 3171 3173 3175 3177 3179 3180 3181 3181 3180 3179 3180 3179 3179 3177 3177 3177 3176 3175 3173 3168 3166 3165 3162 3161 3159 3158 3157 3155 3153 3152 3151 3149
3131 3131 3137 3142 3146 3149 3157 3161 3164 3167 3169 3172 3174 3176 3177 3178 3179 3179 3178 3178 3178 3177 3178 3178 3177 3175 3175 3174 3173 3170 3169 3165 3163 3161 3159 3157 3155 3153 3152 3151 3149 3148 3145
3135 3139 3140 3146 3147 3154 3160 3162 3164 3168 3171 3173 3174 3175 3175 3176 3177 3177 3176 3177 3177 3177 3177 3176 3175 3173 3172 3171 3170 3167 3167 3164 3160 3159 3156 3153 3151 3149 3147 3146 3145 3143 3141
3134 3138 3142 3148 3149 3156 3160 3163 3165 3168 3170 3171 3173 3173 3173 3174 3174 3174 3174 3176 3177 3176 3174 3172 3171 3169 3167 3164 3165 3164 3162 3159 3156 3154 3151 3149 3146 3145 3143 3141 3140 3138 3138
3140 3138 3144 3148 3152 3156 3161 3164 3166 3167 3169 3169 3171 3172 3173 3173 3174 3174 3172 3173 3173 3172 3171 3168 3165 3165 3165 3164 3160 3157 3157 3156 3152 3150 3145 3144 3141 3139 3137 3135 3133 3132 3132
3142 3142 3144 3149 3153 3158 3162 3164 3166 3167 3169 3169 3170 3171 3172 3171 3173 3172 3169 3169 3170 3168 3166 3164 3164 3163 3162 3160 3156 3153 3153 3151 3147 3144 3141 3139 3136 3133 3130 3128 3128 3126 3125
3144 3146 3148 3150 3153 3158 3161 3164 3166 3167 3167 3168 3169 3169 3168 3168 3169 3168 3169 3166 3164 3164 3164 3163 3161 3161 3160 3156 3152 3149 3147 3146 3140 3139 3135 3132 3129 3127 3124 3122 3120 3119 3117
3146 3148 3148 3150 3153 3158 3162 3164 3165 3166 3167 3167 3166 3166 3166 3166 3166 3165 3164 3163 3164 3163 3163 3161 3158 3158 3157 3152 3148 3145 3142 3138 3135 3132 3129 3126 3124 3121 3117 3115 3112 3111 3109
3146 3146 3150 3153 3156 3159 3160 3162 3164 3164 3165 3165 3165 3165 3165 3165 3163 3163 3163 3163 3163 3161 3159 3157 3155 3155 3152 3148 3144 3141 3138 3134 3130 3128 3124 3121 3118 3115 3111 3108 3104 3100 3097
3147 3147 3150 3152 3154 3155 3157 3159 3161 3163 3164 3165 3163 3163 3162 3162 3161 3160 3159 3159 3159 3158 3156 3154 3153 3150 3147 3144 3139 3136 3134 3130 3125 3122 3119 3115 3111 3108 3104 3100 3098 3094 3091
3146 3149 3152 3153 3155 3157 3159 3161 3162 3162 3162 3162 3161 3161 3160 3159 3157 3157 3157 3157 3156 3153 3151 3149 3148 3145 3142 3139 3134 3130 3127 3124 3120 3116 3112 3109 3105 3101 3097 3093 3090 3087 3083
3148 3148 3151 3153 3155 3157 3158 3159 3159 3159 3159 3159 3159 3158 3158 3157 3157 3156 3155 3153 3150 3149 3147 3145 3142 3139 3135 3131 3127 3124 3120 3117 3113 3110 3106 3102 3099 3096 3091 3086 3082 3078 3073
3149 3150 3151 3152 3153 3155 3156 3155 3156 3156 3156 3156 3156 3155 3155 3154 3152 3151 3151 3149 3147 3145 3143 3139 3134 3130 3127 3123 3120 3116 3112 3111 3106 3103 3099 3094 3091 3086 3081 3077 3072 3068 3064
3146 3148 3149 3150 3151 3150 3150 3150 3152 3152 3152 3151 3152 3150 3148 3146 3146 3146 3147 3145 3143 3141 3137 3132 3127 3123 3118 3115 3111 3108 3102 3098 3095 3093 3088 3084 3079 3076 3073 3067 3062 3058 3054
3142 3144 3145 3146 3147 3146 3146 3146 3147 3147 3146 3145 3144 3143 3144 3144 3144 3143 3142 3140 3137 3133 3129 3125 3121 3116 3111 3107 3102 3097 3094 3089 3083 3076 3073 3069 3066 3062 3060 3057 3054 3051 3047
3136 3139 3141 3141 3140 3142 3141 3141 3141 3141 3142 3141 3141 3141 3141 3140 3139 3139 3136 3132 3127 3124 3120 3116 3112 3108 3102 3097 3093 3088 3084 3079 3075 3068 3062 3059 3056 3051 3049 3046 3044 3042 3038
3133 3134 3135 3134 3134 3134 3134 3135 3136 3138 3138 3138 3137 3138 3137 3135 3132 3129 3125 3120 3116 3114 3111 3106 3102 3097 3093 3088 3084 3079 3074 3069 3064 3058 3053 3049 3045 3042 3039 3037 3036 3032 3028
Wind_Speed
12 22 25 27 27 26 24 21 19 16 14 12 8 4 6 9 7 6 6 8 9 9 9 9 9 8 7 6 6 7 7 7 7 8 8 8 9 12 11 8 7 5 5
13 24 24 26 27 26 24 22 19 17 15 12 8 4 8 8 7 7 8 9 9 10 10 10 10 9 7 6 8 8 8 8 6 5 7 8 9 10 9 8 8 8 8
22 25 27 28 28 26 25 23 20 18 15 12 7 6 9 8 8 8 9 9 9 10 9 8 8 8 8 8 10 9 9 8 8 9 10 8 9 9 9 9 10 10 9
23 28 28 29 29 31 27 24 21 18 15 11 10 11 10 9 10 9 9 9 8 7 7 7 7 7 7 8 8 10 10 11 10 10 9 9 8 8 8 9 9 10 9
23 28 31 33 34 31 28 24 21 18 14 11 13 13 12 12 11 11 9 8 7 7 8 8 9 9 10 10 11 11 12 12 13 12 12 11 10 8 7 7 8 9 9
24 33 37 37 37 34 27 23 20 17 12 11 14 13 14 12 11 11 10 8 7 7 8 8 9 11 12 10 12 13 13 13 15 16 13 12 11 10 9 8 8 8 9
23 38 40 34 34 32 24 21 16 12 11 14 14 14 13 12 11 10 8 6 5 6 7 7 9 11 13 12 14 15 15 16 15 15 14 12 10 9 9 9 9 10 10
32 43 38 34 32 34 28 19 15 11 13 14 13 13 12 11 10 7 5 3 2 3 3 5 6 7 8 11 16 17 17 15 15 16 17 15 15 14 13 13 12 12 12
32 29 32 37 37 34 30 21 13 15 15 15 16 15 13 11 8 5 3 2 3 3 4 5 6 6 7 9 12 15 16 15 16 15 17 17 17 16 17 16 16 14 14
37 39 36 35 39 27 22 15 15 17 17 17 15 12 11 9 6 4 4 5 7 7 8 8 9 11 11 13 15 18 20 17 16 16 17 19 19 18 18 19 20 21 20
25 30 23 22 29 22 16 16 17 17 16 15 14 14 12 9 6 6 5 7 10 11 11 12 13 15 17 15 17 17 16 16 19 20 21 22 23 23 22 22 21 22 23
26 14 23 24 22 20 14 12 13 15 16 15 14 12 10 8 8 7 7 10 13 14 12 12 16 17 17 19 20 20 20 21 22 22 21 22 24 25 25 25 24 22 22
22 26 27 23 22 17 13 13 14 14 14 14 14 14 12 12 11 10 11 12 13 14 16 17 18 21 25 26 26 24 23 24 26 25 24 25 26 26 25 25 24 24 24
21 26 22 17 17 13 11 11 12 12 14 14 15 14 14 14 12 13 13 15 16 19 21 23 24 25 26 24 27 27 26 25 26 28 27 29 29 29 28 26 26 25 24
21 26 22 17 13 11 9 9 11 10 12 12 12 14 14 14 13 15 17 17 21 23 26 23 22 24 24 23 25 26 27 26 26 27 27 27 28 28 29 29 28 28 28
14 18 19 16 13 10 7 8 8 8 6 6 11 14 14 12 13 17 16 22 24 22 21 21 23 24 25 25 28 30 30 30 30 29 29 29 30 30 31 31 30 30 31
7 12 12 11 9 9 9 8 6 6 6 8 11 12 16 17 20 19 20 20 21 21 22 23 23 25 27 29 31 35 35 34 34 33 33 33 32 32 33 34 36 34 34
8 10 10 10 11 10 8 5 3 0 5 9 14 15 19 23 24 26 27 27 26 25 24 24 26 29 31 33 35 36 33 33 33 32 33 34 34 34 36 39 41 44 46
8 6 6 5 4 4 2 2 2 5 8 13 15 19 22 27 31 32 32 28 25 25 24 26 29 32 32 34 37 37 34 33 34 33 33 34 35 37 39 42 44 46 49
7 5 5 3 3 4 6 7 8 8 10 13 17 18 18 20 20 19 20 23 24 23 26 30 32 31 33 35 36 35 34 33 34 34 34 35 35 38 41 44 46 48 50
10 7 5 6 8 9 12 12 12 11 12 13 16 17 19 20 21 19 21 22 23 26 29 31 34 32 33 35 34 34 34 34 34 34 35 37 37 38 40 43 46 48 51
10 10 11 10 10 13 15 15 16 16 14 17 17 21 21 19 18 19 22 26 29 29 28 33 33 34 35 34 34 35 36 36 37 37 37 38 37 35 39 41 43 46 47
14 13 14 14 14 16 19 20 20 18 16 17 18 18 18 19 20 24 28 29 30 31 34 36 36 37 36 34 34 36 39 40 40 40 42 41 41 37 35 39 41 42 44
19 19 20 19 18 20 21 23 19 16 16 18 18 17 19 21 26 28 26 26 27 33 31 35 37 36 38 36 36 38 39 41 43 46 46 44 42 41 38 38 36 38 40
20 20 22 24 24 23 25 23 16 16 17 18 19 19 21 24 28 26 28 31 34 42 40 36 37 38 38 38 38 39 40 41 42 43 46 45 42 41 38 36 34 33 33
25 23 22 24 30 28 25 17 14 16 16 19 21 21 23 26 29 32 35 34 32 40 44 38 36 41 40 40 40 40 40 41 41 41 42 43 43 41 38 36 37 37 38
Wind_Direction
193 186 188 183 182 176 172 170 171 169 170 173 178 176 160 160 144 131 114 107 101 94 82 73 64 52 35 18 14 8 5 0 357 5 30 351 337 342 346 10 9 347 332
198 179 189 186 187 185 178 173 173 172 171 176 179 181 170 161 143 132 118 110 102 92 83 78 71 58 36 7 18 10 9 9 11 328 325 326 358 342 349 341 337 331 312
177 181 190 190 189 187 185 178 175 172 172 174 179 178 172 160 140 129 119 107 97 94 89 79 64 50 27 5 5 3 5 3 359 357 345 332 330 337 345 337 334 334 320
192 194 195 195 194 191 181 178 174 172 172 175 173 170 164 157 141 129 119 109 102 96 87 76 64 47 28 359 2 7 5 359 353 358 346 344 353 356 350 333 321 318 317
204 205 198 194 194 186 180 176 172 173 175 178 166 160 154 149 138 130 122 116 107 93 77 59 47 41 37 0 356 353 358 358 350 1 352 347 341 347 351 348 333 321 312
211 205 195 190 186 181 173 172 170 169 175 175 166 156 151 145 139 135 129 119 107 81 63 51 46 48 44 22 354 351 349 348 345 345 349 346 339 335 332 336 326 324 318
210 202 190 181 173 172 164 164 161 171 176 175 165 155 150 143 143 141 134 118 91 65 50 40 44 46 47 28 1 351 344 343 340 332 331 326 320 320 322 324 317 312 310
213 193 177 173 168 167 158 157 163 175 180 175 159 154 156 155 149 152 144 126 80 46 27 25 11 6 9 22 9 347 346 337 333 333 330 326 324 323 318 318 312 308 305
178 170 170 171 165 158 132 145 170 174 176 172 162 165 161 159 166 166 187 264 273 305 333 359 351 346 353 3 358 344 333 333 324 320 318 321 320 317 314 313 311 308 307
191 181 175 168 152 116 120 157 169 175 175 173 169 174 170 170 180 199 241 266 286 296 312 331 341 342 339 334 335 340 333 323 319 313 310 308 306 303 302 301 303 301 300
158 144 156 129 130 126 149 166 174 176 179 178 177 180 181 190 204 228 255 282 289 296 310 330 337 330 333 329 323 323 324 319 315 310 308 305 304 302 296 295 294 294 295
224 192 138 129 126 146 161 175 174 189 191 186 187 193 197 207 228 249 274 288 297 314 323 319 325 321 319 320 320 324 320 317 315 312 306 302 305 303 299 296 294 294 292
126 127 148 138 142 158 172 181 182 192 190 186 185 195 206 220 237 253 277 296 302 312 312 321 330 325 330 331 326 325 328 325 318 317 315 311 307 306 303 301 298 294 294
132 134 132 149 155 168 177 185 190 195 197 201 204 213 224 241 261 286 298 293 296 312 320 324 333 328 319 322 324 327 327 322 316 312 311 309 307 308 308 305 303 299 295
115 142 148 157 159 174 179 191 202 202 209 219 231 238 246 259 279 294 301 292 306 312 317 325 326 319 319 322 321 325 324 321 313 310 310 308 308 308 308 308 307 306 302
121 128 148 150 156 167 157 184 205 214 215 240 248 257 272 283 290 295 300 308 316 316 316 316 316 314 313 318 320 321 319 316 313 314 312 311 310 309 306 304 302 299 298
86 111 115 119 117 126 128 149 169 197 225 270 294 289 277 277 285 295 316 316 308 307 307 307 308 308 308 315 316 314 314 312 311 313 312 311 309 308 305 305 303 302 298
120 108 118 118 120 136 138 149 180 184 305 298 284 286 272 276 285 292 298 302 302 299 302 306 307 304 304 306 308 310 310 307 306 307 306 306 307 307 305 305 305 306 305
138 122 101 105 131 136 151 15 326 295 298 273 285 282 279 276 276 283 284 287 291 292 297 301 301 299 300 303 304 304 305 305 305 307 307 306 306 305 303 302 301 301 300
161 169 166 177 241 245 262 280 292 273 276 272 276 280 282 286 289 284 279 279 281 292 299 298 296 295 296 298 300 301 301 301 302 303 303 300 299 298 297 296 295 293 292
186 182 178 218 252 257 270 279 278 283 272 262 265 267 268 272 271 272 273 277 286 292 293 294 291 290 296 299 299 298 298 297 297 297 298 297 298 296 293 291 290 288 287
213 211 217 232 261 273 277 272 272 275 264 255 253 254 257 266 274 274 277 281 281 285 289 301 295 296 297 298 299 300 299 298 298 297 295 293 293 291 289 286 284 283 283
247 247 245 254 269 278 275 269 275 267 261 252 256 256 275 279 278 278 279 281 276 292 290 300 297 295 296 298 299 301 302 301 300 300 299 299 299 297 290 287 285 286 286
274 274 271 268 266 272 268 271 271 264 264 265 266 276 283 275 273 281 290 299 288 299 293 297 295 296 296 297 300 301 301 301 304 305 306 306 303 299 297 296 291 288 289
291 282 278 266 264 268 270 271 255 264 272 277 277 283 283 280 284 294 293 292 306 308 300 296 299 294 294 297 300 301 302 302 302 300 301 302 302 302 297 297 292 292 292
281 275 278 267 273 272 278 259 267 281 298 286 277 285 284 287 291 292 292 291 293 313 303 298 299 297 298 302 301 300 298 298 300 299 301 303 302 302 297 295 293 293 295